Flag for Germany Weather past 2 weeks in Frankfurt an der Oder, Brandenburg, Germany

Now
58 °F

Overcast.


Feels Like: 57 °F
Forecast: 46 / 58 °F
Wind: 6 mph from West

Location: Lindenberg

Current Time: May 26, 2015 at 4:36:57 PM

Latest Report: May 26, 2015 at 4:00 PM


Visibility: 31 mi

Pressure: 29.99 "Hg

Humidity: 53%

Dew point: 41 °F

Location of Frankfurt an der OderLocation

Historic Weather in Frankfurt an der Oder — Graph

°F

Frankfurt an der Oder temperature yesterday

Maximum temperature yesterday: 67 °F (at 12:00 PM)
Minimum temperature yesterday: 50 °F (at 6:00 AM)
Average temperature yesterday: 59 °F

Past Weeks' High & Low Weather Summary

 TemperatureHumidityPressure
High77 °F (May 12, 4:00 PM)97% (May 15, 6:00 AM)30.31 "Hg (May 15, 6:00 AM)
Low39 °F (May 15, 6:00 AM)25% (May 24, 6:00 PM)29.60 "Hg (May 19, 4:00 AM)
Average56 °F62%30.01 "Hg
* Reported May 11 3:00 PM — May 26 3:00 PM, Frankfurt an der Oder, Weather by CustomWeather, © 2015

Note: Actual official high and low records may vary slightly from our data, if they occured in-between our weather recording intervals... More about our weather records

Advertising

Frankfurt an der Oder weather history for previous 24 hours

 ConditionsComfort  
Time TempWeatherWind HumidityBarometerVisibility
3:00 PM
Tue, May 26
61 °FPartly sunny.5 mph45%29.98 "Hg31 mi
2:00 PM58 °FOvercast.3 mph48%29.98 "Hg31 mi
1:00 PM59 °FOvercast.5 mph46%29.97 "Hg31 mi
12:00 PM57 °FPartly sunny.5 mph54%29.97 "Hg31 mi
10:00 AM56 °FScattered clouds.5 mph58%29.96 "Hg31 mi
9:00 AM54 °FScattered clouds.3 mph67%29.94 "Hg31 mi
8:00 AM53 °FScattered clouds.3 mph75%29.93 "Hg31 mi
7:00 AM52 °FOvercast.2 mph80%29.93 "Hg31 mi
4:00 AM52 °FLight rain. Overcast.1 mph88%29.89 "Hg9 mi
3:00 AM53 °FLight rain. Overcast.1 mph84%29.88 "Hg9 mi
2:00 AM55 °FLight rain. Overcast.2 mph80%29.87 "Hg12 mi
1:00 AM56 °FOvercast.2 mph78%29.87 "Hg12 mi
12:00 AM57 °FOvercast.2 mph78%29.87 "Hg12 mi
10:00 PM
Mon, May 25
59 °FOvercast.3 mph72%29.86 "Hg19 mi
9:00 PM61 °FOvercast.2 mph62%29.83 "Hg25 mi
8:00 PM64 °FPartly sunny.2 mph54%29.83 "Hg22 mi
7:00 PM64 °FPartly sunny.2 mph72%29.81 "Hg22 mi
6:00 PM65 °FPartly sunny.2 mph64%29.82 "Hg25 mi
5:00 PM66 °FPartly sunny.1 mph59%29.83 "Hg25 mi
4:00 PM63 °FPartly sunny.1 mph74%29.84 "Hg22 mi
Weather by CustomWeather, © 2015

See weather overviewHow to use our weather pages